EW2493 Weather Reports


Display with metric or nautical units.
time (UTC)temp
F
wind
direction
speed
MPH
gust
MPH
rain 1hr
in
rain 24hr
in
rain mn
in
humidity
%
barometer
mb
20260510020050 51 336 0.0 2.0 0.00 0.05 0.05 45 1008.4
20260510014549 53 332 1.0 3.0 0.00 0.05 0.05 41 1008.2
20260510013046 56 331 2.0 3.0 0.00 0.05 0.05 37 1008.1
20260510011545 58 333 3.0 7.0 0.00 0.05 0.05 36 1007.9
20260510010042 58 321 6.0 9.0 0.00 0.05 0.05 34 1007.8
20260510004542 59 341 8.0 13.0 0.00 0.05 0.05 34 1007.8
20260510003040 59 307 6.0 12.0 0.00 0.05 0.05 34 1007.6
20260510001542 59 316 10.0 16.0 0.00 0.05 0.05 33 1007.6
20260510000058 59 322 10.0 13.0 0.00 0.05 0.05 32 1007.6
20260509234637 60 332 8.0 15.0 0.00 0.05 0.05 33 1007.5
20260509233036 60 329 12.0 19.0 0.00 0.05 0.05 32 1007.4
20260509231534 59 319 8.0 19.0 0.00 0.05 0.05 32 1007.4
20260509230036 59 312 9.0 20.0 0.00 0.05 0.05 31 1007.2
20260509224533 59 327 14.0 21.0 0.00 0.05 0.05 30 1007.3
20260509223033 59 322 15.0 21.0 0.00 0.05 0.05 32 1007.2
20260509221531 59 314 10.0 19.0 0.00 0.05 0.05 32 1007.2
20260509220030 59 288 8.0 17.0 0.00 0.05 0.05 33 1007.2
20260509214532 59 313 13.0 19.0 0.00 0.05 0.05 33 1007.2
20260509213029 59 302 9.0 19.0 0.00 0.05 0.05 33 1007.3
20260509211527 59 322 10.0 21.0 0.00 0.05 0.05 33 1007.3
20260509210037 59 335 13.0 20.0 0.00 0.05 0.05 34 1007.3
20260509204533 58 334 15.0 21.0 0.00 0.05 0.05 33 1007.3
20260509203024 58 312 7.0 19.0 0.00 0.05 0.05 33 1007.3
20260509201622 58 305 13.0 21.0 0.00 0.05 0.05 34 1007.3
20260509200021 58 329 5.0 17.0 0.00 0.05 0.05 34 1007.2
20260509194521 57 327 14.0 22.0 0.00 0.05 0.05 33 1007.3
20260509193017 57 340 10.0 22.0 0.00 0.05 0.05 36 1007.1
20260509191519 57 346 14.0 22.0 0.00 0.05 0.05 37 1007.2
20260509190014 56 334 9.0 19.0 0.00 0.05 0.05 38 1007.1
20260509184517 56 336 9.0 17.0 0.00 0.05 0.05 38 1007.0
20260509183013 56 294 10.0 19.0 0.00 0.05 0.05 39 1007.1
20260509181511 55 300 13.0 20.0 0.00 0.05 0.05 40 1007.2
20260509180013 55 327 8.0 18.0 0.00 0.05 0.05 41 1007.2
20260509174509 54 316 16.0 22.0 0.00 0.05 0.05 42 1007.0
20260509173008 54 308 11.0 20.0 0.00 0.05 0.05 45 1007.0
20260509171505 53 339 8.0 20.0 0.00 0.05 0.05 42 1006.9
20260509170005 53 360 15.0 22.0 0.00 0.05 0.05 45 1006.7
20260509164503 52 360 10.0 14.0 0.00 0.05 0.05 46 1006.7
20260509163001 52 355 11.0 18.0 0.00 0.05 0.05 47 1006.7
20260509161604 51 336 8.0 18.0 0.00 0.05 0.05 49 1006.4
20260509160058 50 354 13.0 18.0 0.00 0.05 0.05 49 1006.3
20260509154556 50 5 10.0 16.0 0.00 0.05 0.05 51 1006.2
20260509153054 49 8 9.0 15.0 0.00 0.05 0.05 57 1006.0
20260509151559 49 25 10.0 17.0 0.00 0.05 0.05 57 1005.9
20260509150050 48 8 11.0 16.0 0.00 0.05 0.05 61 1005.6
20260509144605 47 7 9.0 16.0 0.00 0.05 0.05 65 1005.4
20260509143105 46 30 10.0 15.0 0.00 0.05 0.05 67 1005.2
20260509141545 46 351 8.0 14.0 0.00 0.05 0.05 71 1005.1
20260509140143 45 343 9.0 13.0 0.00 0.05 0.05 72 1004.8
20260509134601 45 7 6.0 13.0 0.00 0.05 0.05 77 1004.7
20260509133045 44 2 8.0 13.0 0.00 0.05 0.05 79 1004.3
20260509131537 43 21 8.0 14.0 0.00 0.05 0.05 81 1003.9
20260509130046 43 6 7.0 16.0 0.00 0.05 0.05 83 1003.5
20260509124535 42 345 9.0 13.0 0.00 0.05 0.05 85 1003.3
20260509123030 42 336 9.0 14.0 0.00 0.05 0.05 85 1002.8
20260509121540 41 334 5.0 9.0 0.00 0.05 0.05 82 1002.6
20260509120026 40 319 4.0 7.0 0.00 0.05 0.05 82 1002.4
20260509114530 40 330 4.0 6.0 0.00 0.05 0.05 82 1002.1
20260509113024 40 327 3.0 6.0 0.00 0.05 0.05 79 1002.0
20260509111514 41 321 3.0 5.0 0.00 0.05 0.05 78 1001.9
20260509110010 42 328 4.0 7.0 0.00 0.05 0.05 78 1001.6
20260509104506 43 329 5.0 9.0 0.00 0.05 0.05 76 1001.4
20260509103003 43 333 4.0 8.0 0.00 0.05 0.05 76 1001.2
20260509101624 44 336 5.0 9.0 0.00 0.05 0.05 75 1001.0
20260509100058 45 334 5.0 9.0 0.00 0.05 0.05 76 1000.7
20260509094602 45 343 6.0 10.0 0.00 0.05 0.05 77 1000.4
20260509093054 46 344 6.0 9.0 0.00 0.05 0.05 79 1000.3
20260509091548 46 10 6.0 10.0 0.00 0.05 0.05 80 1000.2
20260509090045 47 347 7.0 11.0 0.00 0.05 0.05 81 1000.1
20260509084546 47 337 9.0 13.0 0.04 0.05 0.05 83 999.8
20260509083037 50 344 11.0 17.0 0.05 0.05 0.05 83 999.6
20260509081540 50 313 6.0 9.0 0.05 0.05 0.05 83 998.4
20260509080036 49 306 6.0 11.0 0.05 0.05 0.05 83 998.1
20260509073031 49 279 1.0 3.0 0.00 0.00 0.00 83 998.0
20260509071530 49 348 1.0 4.0 0.00 0.00 0.00 83 998.2
20260509070029 50 357 3.0 5.0 0.00 0.00 0.00 83 998.7
20260509064526 50 355 4.0 8.0 0.00 0.00 0.00 82 998.8
20260509063028 51 335 6.0 14.0 0.00 0.00 0.00 81 998.8
20260509061520 51 13 12.0 18.0 0.00 0.00 0.00 78 998.5
20260509060018 53 8 14.0 21.0 0.00 0.00 0.00 73 998.2
20260509054511 54 330 11.0 16.0 0.00 0.00 0.00 68 998.1
20260509053008 55 333 11.0 15.0 0.00 0.00 0.00 64 998.0
20260509051505 55 325 6.0 8.0 0.00 0.00 0.00 61 997.6
20260509050100 57 336 9.0 18.0 0.00 0.00 0.00 58 997.3
20260509044558 54 359 12.0 19.0 0.00 0.00 0.00 58 997.1
20260509043103 50 282 5.0 11.0 0.00 0.00 0.00 60 996.8
20260509041619 50 267 3.0 7.0 0.00 0.00 0.00 59 996.7
20260509040056 52 268 2.0 5.0 0.00 0.00 0.00 56 996.5
20260509034556 51 237 2.0 7.0 0.00 0.00 0.00 57 996.5
20260509033055 50 231 0.0 3.0 0.00 0.00 0.00 56 996.4
20260509031555 51 226 0.0 2.0 0.00 0.00 0.00 54 996.3
20260509030054 52 203 0.0 3.0 0.00 0.00 0.00 52 996.4
20260509024552 53 263 0.0 2.0 0.00 0.00 0.00 50 996.4
20260509023106 54 168 0.0 2.0 0.00 0.00 0.00 49 996.7
20260509021550 55 300 0.0 1.0 0.00 0.00 0.00 46 996.7